Overview Statistics Trail Chart Weather Telemetry Raw packets
 

This is the latest recevied weather packets stored in our database for station/object OE-11190. If no packets are shown the sender has not sent any weather packets the latest 10 day(s).

<< 9 10 11 12 13 14 15 >>
Time Temp. Humidity Pressure Rain* Wind** Luminosity Snow
1788234308 17.78° C 78% 1018.7 hPa 0 mm - 0 W/m² -
1788233708 17.22° C 80% 1018.5 hPa 0 mm - 0 W/m² -
1788233107 17.78° C 79% 1018.4 hPa 0 mm - 0 W/m² -
1788232508 17.78° C 79% 1018.4 hPa 0 mm - 0 W/m² -
1788231908 17.78° C 81% 1018.3 hPa 0 mm - 0 W/m² -
1788231307 17.78° C 81% 1018.3 hPa 0 mm - 0 W/m² -
1788230708 17.22° C 84% 1018.2 hPa 0 mm - 0 W/m² -
1788230108 17.22° C 85% 1018.2 hPa 0 mm - 0 W/m² -
1788229507 17.22° C 86% 1018.1 hPa 0 mm - 0 W/m² -
1788228908 17.22° C 87% 1018.1 hPa 0 mm - 0 W/m² -
1788228308 17.22° C 87% 1018.1 hPa 0 mm - 0 W/m² -
1788227708 17.22° C 87% 1018.1 hPa 0 mm - 0 W/m² -
1788227108 16.67° C 88% 1018.1 hPa 0 mm - 0 W/m² -
1788226507 16.67° C 90% 1018.1 hPa 0 mm - 0 W/m² -
1788225911 16.11° C 92% 1018.2 hPa 0 mm - 0 W/m² -
1788225307 16.11° C 94% 1018.2 hPa 0 mm - 0 W/m² -
1788224708 16.11° C 92% 1018.2 hPa 0 mm - 0 W/m² -
1788224107 16.11° C 91% 1018.4 hPa 0 mm - 0 W/m² -
1788223508 16.11° C 91% 1018.2 hPa 0 mm - 0 W/m² -
1788222908 16.11° C 92% 1018.2 hPa 0 mm - 0 W/m² -
1788222308 16.11° C 92% 1018.3 hPa 0 mm - 0 W/m² -
1788221708 16.11° C 90% 1018.3 hPa 0.51 mm - 0 W/m² -
1788221108 16.67° C 91% 1018.3 hPa 1.02 mm - 0 W/m² -
1788220508 16.67° C 88% 1018.3 hPa 1.52 mm - 0 W/m² -
1788219908 17.22° C 91% 1018.7 hPa 2.29 mm - 0 W/m² -

* Rain latest hour (hover to see other rain measurements)
** Current wind speed in m/s (hover to see current wind gust speed)